[[{"header":{"parameterUnit":"m.s-1","parameterCategory":1,"la1":30.2991,"la2":30.254,"lo1":-89.0895,"lo2":-89.0444,"dy":0.0017,"dx":0.0017,"nx":28,"ny":28,"refTime":"2024-03-23T03:00:00:Z","depth":0,"parameterNumber":2,"parameterNumberName":"U-component_of_WINDS"},"data":[0,0,0,0,0,0,0,0,0,0,0,0,0,0,0,0,0,0,0,0,0,0,0,0,0,0,0,0,0,0,0,0,0,0,0,0,0,0,0,0,0,0,0,0,0,0,0,0,0,0,0,0,0,0,0,0,0,0,-4.8936,-4.8935,0,-4.8912,-4.8912,-4.8912,-4.878,-4.8777,-4.8773,-4.877,-4.8749,-4.8751,-4.8753,0,0,0,0,0,0,0,0,0,0,0,0,0,-4.8868,-4.887,-4.8936,-4.8935,-4.8935,-4.8913,-4.8912,-4.8912,-4.878,-4.8776,-4.8773,-4.8769,-4.8748,-4.8751,-4.8754,0,0,0,0,0,0,0,0,0,0,0,0,0,-4.8876,-4.887,-4.8936,-4.8867,-4.886,-4.8913,-4.8912,-4.8912,-4.8781,-4.8776,-4.8772,-4.8767,-4.8747,-4.875,-4.8754,-4.8872,0,0,-4.8765,-4.8766,0,0,0,0,0,0,0,0,-4.8876,-4.8879,-4.8877,-4.8871,-4.8864,-4.8844,-4.888,-4.8898,-4.8782,-4.8811,-4.877,-4.8765,-4.8784,-4.8785,-4.8791,-4.8871,-4.887,-4.8765,-4.8767,-4.8769,-4.877,0,0,0,0,0,0,0,-4.8876,-4.8879,-4.8926,-4.8877,-4.8869,-4.8837,-4.8833,-4.8883,-4.8825,-4.8808,-4.8799,-4.8798,-4.878,-4.8788,-4.8789,-4.8869,-4.8765,-4.8768,-4.8771,-4.8772,-4.9045,-4.905,0,0,0,0,0,0,-4.8884,-4.888,-4.8927,-4.8926,-4.8858,-4.8843,-4.8838,-4.8855,-4.8824,-4.8815,-4.8802,-4.8792,-4.8784,-4.8785,-4.8788,-4.8924,-4.8769,-4.8772,-4.8774,-4.904,-4.9046,-4.9051,0,0,0,0,0,0,-4.8883,-4.889,-4.8928,-4.89,-4.8902,-4.8849,-4.8869,-4.8858,-4.8865,-4.8819,-4.8808,-4.882,-4.878,-4.8783,-4.8852,-4.8921,-4.8774,-4.8777,-4.9034,-4.9042,-4.9049,-4.9196,0,0,0,0,0,0,-4.8882,-4.889,-4.8934,-4.8902,-4.8904,-4.8992,-4.8874,-4.886,-4.8871,-4.8858,-4.8833,-4.8825,-4.8777,-4.8847,-4.8855,-4.8923,-4.878,-4.9027,-4.9037,-4.9046,-4.9185,-4.9208,-4.9228,0,0,0,0,0,-4.888,-4.8977,-4.8937,-4.8943,-4.8958,-4.8996,-4.8998,-4.894,-4.8877,-4.8921,-4.8892,-4.8826,-4.8912,-4.8855,-4.8863,-4.8934,-4.9023,-4.9034,-4.9045,-4.9175,-4.9203,-4.9227,0,0,0,0,0,0,-4.9019,-4.8971,-4.8926,-4.9016,-4.9011,-4.8974,-4.9027,-4.8971,-4.8985,-4.8972,-4.89,-4.8896,-4.8975,-4.8961,-4.8898,-4.9046,-4.8956,-4.897,-4.9052,-4.9078,-4.9099,-4.9101,-4.8783,0,0,0,0,0,-4.906,-4.9094,-4.9051,-4.9134,-4.9134,-4.9082,-4.9096,-4.9052,-4.9044,-4.9042,-4.9017,-4.9013,-4.9039,-4.9058,-4.9079,-4.9182,-4.9175,-4.9235,-4.9256,-4.9274,-4.9286,-4.934,-4.9366,-4.9089,-4.9089,-4.9089,0,0,-4.9145,-4.9123,-4.9149,-4.9161,-4.9152,-4.9191,-4.9081,-4.9125,-4.9153,-4.9049,-4.9112,-4.9094,-4.9085,-4.9171,-4.9208,-4.9162,-4.9362,-4.9288,-4.9303,-4.9306,-4.9355,-4.9381,-4.9404,-4.9097,-4.9095,-4.9094,0,0,-4.9319,-4.9306,-4.9373,-4.9367,-4.9355,-4.9319,-4.9336,-4.9307,-4.9291,-4.9353,-4.9276,-4.9308,-4.9355,-4.9351,-4.9356,-4.953,-4.947,-4.9539,-4.9651,-4.9704,-4.9726,-4.9745,-4.9807,-4.983,-4.9552,-4.9552,-4.9552,0,-4.9426,-4.948,-4.9416,-4.9465,-4.9473,-4.938,-4.9448,-4.9445,-4.9442,-4.945,-4.9398,-4.9454,-4.9442,-4.9526,-4.9569,-4.9575,-4.9592,-4.9541,-4.9728,-4.9746,-4.9763,-4.9821,-4.9845,-4.9561,-4.956,-4.9559,-4.9558,0,-4.9612,-4.9651,-4.9707,-4.9705,-4.9719,-4.9778,-4.9724,-4.9746,-4.9701,-4.9671,-4.9736,-4.9718,-4.9734,-4.9751,-4.9708,-4.983,-4.9801,-4.974,-4.9648,-4.9799,-4.9853,-4.9874,-4.9573,-4.957,-4.9567,-4.9565,0,0,-4.9872,-4.9834,-4.9856,-4.9854,-4.9834,-4.9863,-4.9919,-4.9934,-4.9954,-4.9955,-5.0,-5.0042,-4.9985,-4.999,-4.9946,-4.9993,-5.0132,-4.9925,-4.9924,-4.9964,-5.0266,-5.0312,-5.0339,-5.0092,-5.0096,-5.0099,-5.0267,0,-5.0039,-5.013,-5.0075,-5.0175,-5.021,-5.0122,-5.0171,-5.0164,-5.0138,-5.0165,-5.0136,-5.0167,-5.0089,-5.0092,-5.0134,-5.0106,-5.0192,-5.0093,-5.0134,-5.0136,-5.0139,-5.0367,-5.0416,-5.0574,-5.0287,-5.0291,-5.0293,0,-5.0246,-5.0255,-5.0359,-5.0332,-5.0345,-5.0389,-5.0399,-5.0425,-5.0416,-5.0394,-5.0401,-5.0345,-5.0398,-5.0308,-5.038,-5.0315,-5.0328,-5.0317,-5.0322,-5.0323,-5.0224,-5.0375,-5.0624,-5.0648,-5.0326,-5.0323,-5.0321,0,-5.0425,-5.0464,-5.053,-5.0532,-5.0502,-5.0536,-5.0525,-5.0512,-5.0525,-5.0534,-5.0542,-5.0557,-5.0566,-5.058,-5.053,-5.0469,-5.0609,-5.0515,-5.0593,-5.0594,-5.0626,-5.0625,-5.0881,-5.0636,-5.0635,-5.0635,-5.0634,0,-5.0617,-5.0684,-5.0611,-5.0652,-5.0724,-5.066,-5.0734,-5.0714,-5.0703,-5.074,-5.0666,-5.0702,-5.0634,-5.0663,-5.0625,-5.0691,-5.0695,-5.0679,-5.0668,-5.0686,-5.0688,-5.0693,-5.0681,-5.0641,-5.064,-5.0638,-5.0637,0,-5.0829,-5.0783,-5.085,-5.0817,-5.0811,-5.0866,-5.0838,-5.0875,-5.0844,-5.0891,-5.0899,-5.0851,-5.0881,-5.0833,-5.0859,-5.0833,-5.0924,-5.0897,-5.0927,-5.0919,-5.1,-5.0993,-5.1268,-5.1301,-5.1035,-5.1038,-5.104,0,-5.0955,-5.1004,-5.0976,-5.0995,-5.0989,-5.102,-5.1033,-5.0972,-5.0989,-5.0983,-5.1021,-5.1046,-5.1062,-5.1115,-5.1083,-5.1102,-5.1074,-5.117,-5.1077,-5.1093,-5.1076,-5.1073,-5.1078,-5.1189,-5.1192,-5.1194,-5.1197,0,-5.1182,-5.1157,-5.1177,-5.1191,-5.1209,-5.1216,-5.1219,-5.1239,-5.1175,-5.1197,-5.1228,-5.124,-5.1266,-5.1292,-5.1303,-5.1293,-5.1235,-5.1226,-5.1245,-5.1263,-5.1279,-5.1272,-5.0979,-5.122,-5.1218,-5.1216,-5.1215,-5.1214,-5.1354,-5.1394,-5.1381,-5.1407,-5.1402,-5.1407,-5.144,-5.1414,-5.1437,-5.1453,-5.1416,-5.1456,-5.1446,-5.1455,-5.1452,-5.1482,-5.1441,-5.1468,-5.1475,-5.1483,-5.1495,-5.1275,-5.1484,-5.1484,-5.1483,-5.1482,-5.1482,0,-5.1577,-5.1565,-5.1589,-5.1595,-5.1616,-5.1559,-5.1559,-5.1581,-5.1616,-5.1612,-5.1629,-5.1665,-5.1689,-5.166,-5.1679,-5.1709,-5.1683,-5.1716,-5.1713,-5.1712,-5.1532,-5.1513,-5.1737,-5.1737,-5.1737,-5.1737,-5.1737,-5.1737,-5.1696,-5.176,-5.1734,-5.1796,-5.1782,-5.182,-5.1825,-5.1829,-5.1825,-5.1868,-5.1888,-5.1868,-5.1854,-5.1872,-5.1892,-5.1882,-5.1893,-5.1936,-5.1918,-5.175,-5.1725,-5.1701,-5.1683,-5.1939,-5.1939,-5.2095,-5.2096,-5.2098]},{"header":{"parameterUnit":"m.s-1","parameterCategory":1,"la1":30.2991,"la2":30.254,"lo1":-89.0895,"lo2":-89.0444,"dy":0.0017,"dx":0.0017,"nx":28,"ny":28,"refTime":"2024-03-23T03:00:00:Z","depth":0,"parameterNumber":3,"parameterNumberName":"V-component_of_WINDS"},"data":[0,0,0,0,0,0,0,0,0,0,0,0,0,0,0,0,0,0,0,0,0,0,0,0,0,0,0,0,0,0,0,0,0,0,0,0,0,0,0,0,0,0,0,0,0,0,0,0,0,0,0,0,0,0,0,0,0,0,-0.6857,-0.6857,0,-0.6894,-0.6895,-0.6895,-0.6892,-0.6892,-0.6891,-0.6891,-0.6929,-0.6931,-0.6932,0,0,0,0,0,0,0,0,0,0,0,0,0,-0.6782,-0.6784,-0.6857,-0.6857,-0.6858,-0.6894,-0.6895,-0.6895,-0.6892,-0.6892,-0.6891,-0.689,-0.6929,-0.6931,-0.6933,0,0,0,0,0,0,0,0,0,0,0,0,0,-0.6817,-0.6784,-0.6857,-0.6861,-0.6862,-0.6894,-0.6895,-0.6895,-0.6893,-0.6892,-0.6891,-0.689,-0.6928,-0.693,-0.6933,-0.6964,0,0,-0.694,-0.6941,0,0,0,0,0,0,0,0,-0.6815,-0.6819,-0.686,-0.6861,-0.6861,-0.6888,-0.6882,-0.6918,-0.6893,-0.6881,-0.6891,-0.689,-0.6916,-0.6919,-0.6928,-0.6966,-0.6967,-0.694,-0.6941,-0.6942,-0.6943,0,0,0,0,0,0,0,-0.6812,-0.6818,-0.6872,-0.686,-0.6861,-0.686,-0.6864,-0.6889,-0.6903,-0.6882,-0.6882,-0.6886,-0.6917,-0.6926,-0.6929,-0.6968,-0.694,-0.6942,-0.6943,-0.6944,-0.7031,-0.7032,0,0,0,0,0,0,-0.6809,-0.6816,-0.687,-0.6873,-0.6836,-0.6862,-0.6867,-0.688,-0.6902,-0.6905,-0.6887,-0.6886,-0.6923,-0.6926,-0.6931,-0.6968,-0.6942,-0.6945,-0.6946,-0.703,-0.7031,-0.7032,0,0,0,0,0,0,-0.6807,-0.6814,-0.6869,-0.6844,-0.6851,-0.6865,-0.688,-0.6881,-0.6891,-0.6906,-0.6909,-0.6894,-0.6922,-0.6927,-0.6955,-0.6969,-0.6946,-0.6948,-0.7029,-0.703,-0.7031,-0.7042,0,0,0,0,0,0,-0.6805,-0.6813,-0.6826,-0.6845,-0.6852,-0.6893,-0.688,-0.6883,-0.6895,-0.6894,-0.6914,-0.6916,-0.6922,-0.6952,-0.6957,-0.6972,-0.695,-0.7028,-0.7029,-0.7031,-0.7041,-0.7044,-0.7046,0,0,0,0,0,-0.6803,-0.6828,-0.6826,-0.6833,-0.6868,-0.6894,-0.6899,-0.6904,-0.6896,-0.6908,-0.6918,-0.6916,-0.6966,-0.6955,-0.6961,-0.6976,-0.7027,-0.7029,-0.7031,-0.7039,-0.7043,-0.7046,0,0,0,0,0,0,-0.6811,-0.683,-0.6829,-0.6861,-0.6876,-0.6894,-0.6909,-0.6908,-0.6926,-0.6925,-0.6931,-0.6935,-0.6963,-0.6972,-0.6959,-0.7006,-0.6995,-0.6999,-0.7,-0.7003,-0.7006,-0.7004,-0.6951,0,0,0,0,0,-0.6816,-0.6836,-0.6852,-0.6878,-0.6886,-0.6896,-0.6908,-0.6911,-0.6926,-0.6933,-0.6944,-0.696,-0.6979,-0.6991,-0.701,-0.7042,-0.7045,-0.7055,-0.7058,-0.706,-0.7063,-0.7079,-0.7084,-0.7039,-0.7039,-0.7039,0,0,-0.6828,-0.6841,-0.6853,-0.688,-0.6892,-0.6912,-0.6902,-0.6923,-0.6938,-0.6936,-0.6963,-0.6972,-0.6989,-0.7019,-0.7032,-0.7027,-0.7076,-0.7063,-0.7064,-0.7066,-0.7082,-0.7086,-0.709,-0.704,-0.704,-0.7039,0,0,-0.6859,-0.6871,-0.6894,-0.6906,-0.6923,-0.693,-0.6935,-0.6953,-0.6958,-0.6985,-0.6984,-0.7001,-0.7034,-0.7047,-0.7057,-0.7091,-0.7089,-0.7096,-0.7112,-0.7127,-0.7131,-0.7134,-0.7146,-0.715,-0.7099,-0.7099,-0.7099,0,-0.6871,-0.6901,-0.6906,-0.6927,-0.6939,-0.6937,-0.696,-0.6971,-0.6994,-0.7002,-0.6996,-0.7036,-0.7048,-0.708,-0.7088,-0.7097,-0.7103,-0.7095,-0.713,-0.7133,-0.7136,-0.7147,-0.7152,-0.71,-0.71,-0.71,-0.71,0,-0.6915,-0.6935,-0.6952,-0.6973,-0.6986,-0.7009,-0.7016,-0.7029,-0.703,-0.7037,-0.7064,-0.7077,-0.7098,-0.7106,-0.7108,-0.7137,-0.7134,-0.7129,-0.7118,-0.7141,-0.7152,-0.7156,-0.7101,-0.7101,-0.7101,-0.71,0,0,-0.6954,-0.6976,-0.6982,-0.6991,-0.701,-0.7026,-0.7047,-0.7067,-0.7077,-0.7093,-0.7111,-0.7138,-0.7133,-0.7145,-0.7147,-0.7161,-0.7186,-0.7154,-0.7155,-0.716,-0.7219,-0.7223,-0.7228,-0.7185,-0.7185,-0.7186,-0.7217,0,-0.6986,-0.7024,-0.7028,-0.7062,-0.7081,-0.7079,-0.7097,-0.711,-0.7117,-0.7133,-0.714,-0.7159,-0.7151,-0.7158,-0.7172,-0.718,-0.7198,-0.7178,-0.7201,-0.7202,-0.7197,-0.7233,-0.7238,-0.7267,-0.7222,-0.7222,-0.7223,0,-0.703,-0.7046,-0.7082,-0.7096,-0.7104,-0.7121,-0.7139,-0.7154,-0.7169,-0.7172,-0.7184,-0.7185,-0.7206,-0.7194,-0.7223,-0.7209,-0.7219,-0.7224,-0.7225,-0.7228,-0.7214,-0.7237,-0.7276,-0.728,-0.7229,-0.7229,-0.7228,0,-0.7055,-0.7085,-0.711,-0.7118,-0.7136,-0.7147,-0.7155,-0.7168,-0.7179,-0.7195,-0.7202,-0.722,-0.7229,-0.7243,-0.7248,-0.7238,-0.7277,-0.7265,-0.728,-0.728,-0.7289,-0.7288,-0.733,-0.7295,-0.7295,-0.7294,-0.7294,0,-0.7091,-0.7113,-0.7121,-0.7136,-0.716,-0.7164,-0.7187,-0.7194,-0.7206,-0.7222,-0.7221,-0.7236,-0.7242,-0.7258,-0.7262,-0.7285,-0.729,-0.7293,-0.7294,-0.7293,-0.7293,-0.73,-0.7298,-0.7296,-0.7295,-0.7295,-0.7295,0,-0.7123,-0.7129,-0.7156,-0.717,-0.7174,-0.7191,-0.7203,-0.7217,-0.7222,-0.7243,-0.7248,-0.7257,-0.7276,-0.7282,-0.7304,-0.7307,-0.7334,-0.7333,-0.7329,-0.7329,-0.7344,-0.7342,-0.7392,-0.7399,-0.7359,-0.7359,-0.7359,0,-0.7146,-0.7162,-0.7178,-0.7188,-0.7197,-0.7214,-0.7225,-0.7229,-0.724,-0.7257,-0.7269,-0.7287,-0.7302,-0.7332,-0.734,-0.7357,-0.7357,-0.7373,-0.7359,-0.7358,-0.7357,-0.7356,-0.7357,-0.7376,-0.7376,-0.7376,-0.7377,0,-0.7186,-0.7188,-0.7204,-0.722,-0.7233,-0.7247,-0.726,-0.7268,-0.7274,-0.7287,-0.7305,-0.7317,-0.7339,-0.7357,-0.7374,-0.7382,-0.738,-0.738,-0.7385,-0.7385,-0.7382,-0.7383,-0.7336,-0.738,-0.7379,-0.7379,-0.7379,-0.7379,-0.7214,-0.7228,-0.7241,-0.7258,-0.7268,-0.7279,-0.7293,-0.73,-0.7316,-0.7334,-0.7335,-0.7355,-0.7368,-0.739,-0.7399,-0.7414,-0.741,-0.7416,-0.7418,-0.7419,-0.742,-0.7379,-0.7417,-0.7417,-0.7417,-0.7417,-0.7417,0,-0.7254,-0.7261,-0.7277,-0.7295,-0.7308,-0.7304,-0.7318,-0.7329,-0.7347,-0.7359,-0.7373,-0.7394,-0.7411,-0.742,-0.7436,-0.7447,-0.7446,-0.7451,-0.7451,-0.7452,-0.7424,-0.7418,-0.7451,-0.7451,-0.7451,-0.7451,-0.7451,-0.7451,-0.7276,-0.7299,-0.7302,-0.733,-0.7337,-0.7357,-0.7365,-0.7375,-0.7384,-0.7407,-0.7421,-0.7427,-0.7437,-0.7454,-0.747,-0.7472,-0.7478,-0.7483,-0.7485,-0.7458,-0.7454,-0.7451,-0.7446,-0.7484,-0.7485,-0.7512,-0.7513,-0.7513]}]]